www.pogodaiklimat.ru

Погода и климат >> Архив погоды >> Боливия >> Сан-Игнасио


ПОГОДА в Сан-Игнасио

  • Прогноз погоды в Сан-Игнасио
  • Монитор погоды в Сан-Игнасио

АРХИВ ПОГОДЫ в Сан-Игнасио

Время (UTC), дата Ветер
(напр.,м/с)
 
Видим.   Явления Облачность Т
(С)
Тd
(С)
f
(%)
Тe
(С)
Тes
(С)
Комфортность P
(гПа)
Po
(гПа)
Тmin
(С)
Tmax
(С)
R
(мм)
R24
(мм)
S
(см)
12 18.08 штиль 0 3000 м дым ясно +21.0 +18.0 83 +25 +30 комфорт 1013.8 967.0 +16.0
15 18.08 СЗ 3 5000 м дым ясно +30.8 +18.3 47 +35 +48 очень
душно
1015.0 967.2
18 18.08 СЗ 4 5000 м дым 4/4 500 м
[Cu med, cong]
+34.0 +16.2 35 +37 +42 очень
душно
1012.8 965.0
21 18.08 С 3 5000 м дым ясно +33.0 +16.2 37 +36 +37 очень
душно
1010.8 963.8 +34.5
12 19.08 Ю 5 8000 м дым 8/0 2000 м
[Ac trans Ci sp]
+22.0 +14.7 63 +25 +27 комфорт 1012.2 969.6 +20.4
15 19.08 Ю 3 8000 м дым 8/0 2000 м
[Ac lent]
+24.6 +14.3 53 +27 +32 жарко 1016.2 969.8
18 19.08 Ю 3 8000 м дым 4/0 2000 м
[Ac trans]
+30.0 +15.8 42 +33 +42 душно 1013.7 966.7
21 19.08 штиль 0 8000 м дым 5/5 500 м
[Cu med, cong]
+30.6 +17.3 45 +35 +35 очень
душно
1011.3 964.6 +32.0
12 20.08 Ю 3 20 км дым 4/0 2000 м
[Ac trans]
+18.2 +8.7 54 +18 +21 1016.3 970.4 +14.3
15 20.08 Ю 3 30 км дым ясно +25.6 +11.7 42 +27 +40 жарко 1019.2 972.1
18 20.08 Ю 3 8000 м дым ясно +30.4 +13.0 34 +31 +42 жарко 1015.3 968.5
21 20.08 Ю 3 8000 м дым ясно +30.0 +14.9 40 +32 +33 жарко 1014.5 967.5 +31.0
12 21.08 Ю 3 20 км дым ясно +18.9 +8.7 52 +20 +23 1017.1 971.5 +16.0
15 21.08 Ю 3 20 км дым ясно +27.3 +11.6 38 +28 +43 жарко 1019.6 972.3
18 21.08 Ю 3 8000 м дым ясно +32.6 +15.9 37 +35 +47 душно 1014.2 967.5
21 21.08 штиль 0 7000 м дым ясно +33.5 +17.7 39 +37 +39 очень
душно
1013.2 966.1 +35.0
12 22.08 штиль 0 1000 м дым ясно +19.4 +14.9 75 +21 +26 комфорт 1014.2 969.0 +16.4
15 22.08 С 3 3000 м дым ясно +32.3 +18.7 45 +37 +51 опасность
солнечного
удара
1015.1 968.3
18 22.08 СЗ 3 5000 м дым 5/5 600 м
[Cu med, cong]
+35.6 +20.2 41 +42 +47 опасность
перегрева
1012.3 965.6
21 22.08 С 3 5000 м дым 5/5 600 м
[Cu med, cong]
+35.0 +20.4 43 +42 +42 опасность
перегрева
1012.5 965.6 +36.5
12 23.08 Ю 5 8000 м дым {дождь} 10/8 600 м
[Sc As op]
+20.0 +12.7 63 +22 +22 комфорт 1018.1 972.7 +18.6 3
15 23.08 Ю 5 8000 м дым 9/0 2000 м
[As op]
+24.0 +14.7 56 +27 +29 жарко 1019.6 972.3
18 23.08 Ю 3 8000 м дым 8/0 2000 м
[Ac lent]
+29.4 +16.3 45 +33 +37 душно 1015.3 969.4
21 23.08 Ю 3 8000 м дым ясно +30.0 +16.9 45 +34 +34 очень
душно
1013.3 967.4 +31.3
12 24.08 штиль 0 3000 м дым ясно +21.3 +17.1 77 +25 +30 комфорт 1014.7 968.7 +15.4
15 24.08 В 3 6000 м дым ясно +31.2 +16.7 42 +35 +50 очень
душно
1014.5 967.5
18 24.08 СВ 3 8000 м дым 5/5 500 м
[Cu hum]
+35.0 +18.7 38 +39 +46 очень
душно
1011.4 964.6
21 24.08 штиль 0 8000 м дым ясно +33.8 +19.8 44 +40 +41 очень
душно
1009.4 963.6 +35.4

 

Местоположение метеостанции Сан-Игнасио (Боливия): широта -16.38 долгота -60.96 высота над уровнем моря 413 м.

В архиве по умолчанию представлена погода в Сан-Игнасио за последнюю неделю. Архивные данные за месяц целиком и за предыдущие месяцы, начиная с января 2011 года, Вы можете получить, выбрав интересующий диапазон дат из раскрывающегося списка и нажав кнопку "Ввод!".


*Определитесь, кто Вы:
робот инопланетянин человек

Внимание! Время в таблицах - всемирное. Для получения местного времени необходимо прибавить поправку, которая равна -4 ч.

Смотрите также архив погоды в соседних городах и на ближайших метеорологических станциях:

Погода в Консепсьоне (Боливия) (115 км)
Погода в Сан Хосе де Чикитосе (Боливия) (160 км)
Погода в Сан-Хавьере (Боливия) (161 км)
Погода на Ферме Vila Bela da S Trind (Мату-Гросу, Бразилия) (187 км)
Погода в Понтис-и-Ласерде (Мату-Гросу, Бразилия) (213 км)
Погода в Ассенсьон де Гуарае (Боливия) (241 км)
Погода в Роборе (Боливия) (250 км)
Погода в Виру-Виру (Боливия) (269 км)
Погода в Сан-Матиасе (Боливия) (275 км)
Погода в Санта-Крусе (Боливия) (284 км)

Пояснения к столбцам:

Ветер - указаны скорость ветра в м/с - средняя за 10 мин, порывы в срок и между сроками (в фигурных скобках) и направление, откуда дует ветер: С - северный, СВ - северо-восточный, В - восточный, ЮВ - юго-восточный, Ю - южный, ЮЗ - юго-западный, З - западный, СЗ - северо-западный.
Видимость - горизонтальная дальность видимости в метрах или километрах. При видимости от 1 до 10 км при отсутствии осадков обычно наблюдается дымка, при ухудшении видимости до 1 км и менее - туман. В сухую погоду видимость может ухудшаться дымом, пылью или мглою.
Явления - указаны атмосферные явления, наблюдавшиеся в срок или в последний час перед сроком; фигурными скобками обозначены явления, наблюдавшиеся между сроками (за 1-3 часа до срока); квадратными скобками обозначены град или гололедные отложения с указанием их диаметра в мм.
Облачность - указаны через наклонную черту общая и нижняя облачность в баллах и высота нижней границы облаков в метрах; квадратными скобками обозначены формы облаков: Ci - перистые, Cs - перисто-слоистые, Cc - перисто-кучевые, Ac - высококучевые, As - высокослоистые, Sc - слоисто-кучевые, Ns - слоисто-дождевые, Cu - кучевые, Cb - кучево-дождевые. Подробнее классификацию облаков см. в Атласе облаков (PDF).
T - Температура воздуха - температура, измеренная на высоте 2 м над землей.
Td - Температура точки росы - температура, при понижении до которой содержащийся в воздухе водяной пар достигнет насыщения.
f - Относительная влажность воздуха - влажноcть воздуха, измеренная на высоте 2 м над землей.
Te - Эффективная температура - температура, которую ощущает одетый по сезону человек в тени. Характеристика душности погоды. При расчете учитывается влияние влажности воздуха и скорости ветра на теплоощущения человека.
Tes - Эффективная температура на солнце - температура, которую ощущает человек, с поправкой на солнечный нагрев. Характеристика знойности погоды. Зависит от высоты солнца над горизонтом, облачности и скорости ветра. Ночью, в пасмурную погоду, а также при ветре 12 м/с и более поправка равна нулю.
P - Атмосферное давление - приведенное к уровню моря атмосферное давление.
Po - Атмосферное давление - измеренное на уровне метеостанции атмосферное давление.
Tmin - Минимальная температура - минимум температуры воздуха на высоте 2 м над землей.
Tmax - Максимальная температура - максимум температуры воздуха на высоте 2 м над землей.
R - Количество осадков - Количество выпавших осадков за период времени, мм. При наведении курсора мыши на число - период времени, за который выпало указанное количество осадков.
R24 - Количество осадков - Количество выпавших осадков за 24 часа, мм.
S - Снежный покров - Высота снежного покрова, см. При наведении курсора мыши на число - состояние снежного покрова и степень покрытия местности в баллах.